Location: Unspecified
(0.0000°N, 0.0000°E)
Time: 20:29:45
(UTC+00:00)

ISS - Pass Details

Date: 21 June 2019
Orbit: 407 x 419 km, 51.6° (Epoch: 26 June)

Event Time Altitude Azimuth Distance (km) Brightness Sun altitude
Exits shadow 03:53:52 11° 106° (ESE) 1,427 -0.5 -29.1°
Drops below altitude 10° 03:54:08 10° 101° (ESE) 1,470 -0.4 -29.0°
Sets 03:57:15 0° 69° (ENE) 2,324 1.3 -28.3°
